Tracking 17264 objects as of 29-August-2015
HD Live streaming from Space Station

COSMOS 963

Track COSMOS 963 now!
10-day predictions
COSMOS 963 is classified as:


NORAD ID: 10491
Int'l Code: 1977-109A
Perigee: 1,190.1 km
Apogee: 1,212.3 km
Inclination: 82.9 °
Period: 109.3 minutes
Semi major axis: 7572 km
RCS: 3.0327 m2 (large)
Launch date: November 24, 1977
Source: Commonwealth of Independent States (former USSR) (CIS)
Your satellite tracking list
Your tracking list is empty





NASA's NSSDC Master Catalog

Two Line Element Set (TLE):
1 10491U 77109A   15240.52883720  .00000105  00000-0  23756-3 0  9998
2 10491 082.9297 040.2247 0014667 318.7575 149.1613 13.17561373816358

Source of the keplerian elements: AFSPC

N2YO: 285